Погода в Ватутино

Украина / Черкасская область     49°00′37″N   31°02′45″E
темп.,
°C
ветер,
м/с
пор.,
м/с
влажн.,
%
обл.,
%
осадки,
мм/ч
давл.,
гПа
погр.,
м
19 января, ср
ср1923:00−5ссз81481100 0.1 10221069
02:00−5ссз81480100 0.1 1024846
05:00−6ссз7138496 0.0 1024671
08:00−7ссз51186100 0.0 1026490
11:00−4ссз6969100 0.0 1026584
14:00−3сз476193 0.0 1024626
17:00−4зюз238176 0.0 102441
20:00−5зюз37945 0.0 1023123
20 января, чт
чт2023:00−5юз36965 0.0 1021127
02:00−5ююз3796100 0.0 1020136
05:00−5ююз4896100 0.0 1017190
08:00−4ююз4993100 0.0 1015193
11:00−1ююз6136894 0.0 1013447
14:00+1ююз596372 0.0 1010606
17:00−2ююз487990 0.0 1009151
20:00−2зюз41084100 0.0 1008344
21 января, пт
пт2123:00−2зюз4997100 0.8 1007320
02:00−2зюз5119677 1.0 1007503
05:00−3з61281100 0.1 1008815
08:00−5з8158094 0.1 1009810
11:00−3з9137387 0.0 10101058
14:00−2з9147181 0.0 10091095
17:00−3з81477100 0.0 1009860
20:00−4з7148559 0.0 1010735
22 января, сб
сб2223:00−4з7148276 0.0 1010704
02:00−5зюз7148396 0.0 1009639
05:00−4зюз71386100 0.0 1009750
08:00−4зюз61187100 0.2 1009687
11:00−3з6877100 0.0 1011896
14:00−2з5867100 0.3 10101279
17:00−4зюз3783100 0.2 1012144
20:00−5зюз379117 0.2 1014163
23 января, вс
вс2323:00−6юз259518 0.0 1015110
02:00−7з119886 0.0 101627
05:00−6ссз249685 0.1 1017131
08:00−7с259684 0.2 1020156
11:00−5ссв4586100 0.1 1022443
14:00−4св4577100 0.1 1023806
17:00−4ссв4793100 0.1 1025450
20:00−6ссв589290 0.2 1027425